Location: Home
(42.5358°N, 72.7383°W)
Time: 15:40:09
(UTC-05:00)

Vanguard 3 - Pass Details

Date: 08 December 2021
Orbit: 508 x 3260 km, 33.3° (Epoch: 20 January)

Event Time Altitude Azimuth Distance (km) Brightness Sun altitude
Rises 23:17:33 0° 193° (SSW) 5,717 - -69.6°
Reaches altitude 10° 23:22:07 10° 180° (S) 5,122 - -69.8°
Maximum altitude 23:33:32 24° 134° (SE) 4,770 - -70.2°
Exits shadow 23:45:56 12° 93° (E) 6,037 11.5 -70.3°
Drops below altitude 10° 23:47:04 10° 91° (E) 6,201 11.6 -70.3°
Sets 23:53:18 0° 80° (E) 7,172 12.0 -70.2°
